Regional Weather Roundup
Issued by NWS

Home | Current Version | Previous Version | Graphics & Text | Print | Product List | Glossary On
Versions: 1 2 3 4 5 6 7 8 9 10 11 12 13 14 15 16 17 18 19 20 21 22 23 24 25 26 27 28 29 30 31 32 33 34 35 36 37 38 39 40 41 42 43 44 45 46 47 48 49 50
000
ASUS43 KLMK 080202
RWRKY
KENTUCKY REGIONAL WEATHER ROUNDUP
NATIONAL WEATHER SERVICE LOUISVILLE KY
900 PM EST SUN FEB 07 2016

NOTE "FAIR" INDICATES FEW OR NO CLOUDS BELOW 12,000 FEET
WITH NO SIGNIFICANT WEATHER AND/OR OBSTRUCTIONS TO VISIBILITY.

KYZ001>023-026-027-061>063-070>075-080300-
WESTERN AND SOUTH CENTRAL KENTUCKY

CITY           SKY/WX    TMP DP  RH WIND       PRES   REMARKS
PADUCAH        PTCLDY    48  31  51 SW9       29.89F
HENDERSON      CLOUDY    46  28  49 SW9       29.86F
OWENSBORO      CLOUDY    47  33  58 SW8       29.87F
HOPKINSVILLE   PTCLDY    46  27  47 SW10      29.90F
BOWLING GREEN  PTCLDY    47  22  37 SW6       29.91F
GLASGOW        NOT AVBL
$$

KYZ024-025-028>034-038-045-046-053-080300-
NORTH CENTRAL KENTUCKY

CITY           SKY/WX    TMP DP  RH WIND       PRES   REMARKS
LOUISVILLE/SDF CLOUDY    49  21  33 S8        29.86F
LOUISVILLE/LOU CLOUDY    48  22  35 S5        29.87F
FORT KNOX      MOCLDY    44  23  44 SW7       29.85F
$$

KYZ035>037-039>044-047>052-055>060-089>105-080300-
NORTHEAST KENTUCKY

CITY           SKY/WX    TMP DP  RH WIND       PRES   REMARKS
LEXINGTON      CLEAR     41  21  44 S9        29.88F
COVINGTON      CLOUDY    46  21  37 S8        29.84F
FRANKFORT      PTCLDY    41  21  44 S5        29.86F
$$

KYZ054-064>069-076>088-106>120-080300-
SOUTHEAST KENTUCKY

CITY           SKY/WX    TMP DP  RH WIND       PRES   REMARKS
JACKSON        CLEAR     44  19  36 SW5       29.90F
LONDON         CLEAR     38  23  55 CALM      29.91F
SOMERSET       NOT AVBL
MIDDLESBORO    NOT AVBL
MONTICELLO     PTCLDY    30  25  81 CALM      29.94F
$$




USA.gov is the U.S. government's official web portal to all federal, state and local government web resources and services.